EHI
6 7 10 10 7 5 4 3 2 1 0 0 0 0 1 2 2 1 0 0 1 3 6 6 7 7 7 6 6 6 4 1 0 0 0 0 0 0 0 0 0 0 0
5 7 8 6 5 4 3 3 3 2 1 0 0 1 1 1 1 0 0 0 1 3 5 6 7 7 6 5 4 4 3 1 0 0 0 0 0 0 0 0 0 0 0
6 6 5 4 3 3 3 3 3 3 2 1 1 1 1 0 0 0 0 0 0 2 4 6 6 6 5 4 3 3 2 1 0 0 0 0 0 0 0 0 0 0 0
6 6 4 3 3 3 3 3 3 3 3 3 2 1 0 0 0 0 0 0 0 0 2 5 6 6 5 5 4 4 3 2 1 0 0 0 0 0 0 0 0 0 0
5 4 3 3 3 3 3 3 3 3 3 3 2 1 0 0 0 0 0 0 0 0 0 2 5 5 6 8 8 7 5 3 1 0 0 0 0 0 0 0 0 0 0
3 3 3 3 3 3 3 3 3 3 3 3 2 1 1 0 0 0 0 0 0 0 0 1 2 3 6 10 11 10 7 5 2 1 0 0 0 0 0 0 0 0 0
3 3 3 3 3 3 3 3 3 2 2 2 2 1 0 0 0 0 0 0 1 1 0 0 0 1 3 7 9 9 9 7 4 3 2 1 0 0 0 0 0 0 0
3 3 3 3 3 3 3 2 1 1 1 1 1 0 0 0 0 0 0 0 0 1 1 0 0 0 0 2 4 7 8 8 6 5 4 3 1 1 0 0 0 0 0
4 3 3 3 3 3 2 1 0 0 0 0 0 0 0 0 0 0 0 0 0 0 0 0 0 0 0 0 1 3 5 6 5 4 4 3 3 2 1 0 0 0 0
4 4 3 3 3 2 1 1 1 1 1 1 1 0 0 0 0 0 0 0 0 0 0 0 0 0 0 0 0 1 2 3 3 2 1 2 3 3 2 1 0 0 0
5 4 4 3 3 3 2 2 2 2 2 2 2 1 1 1 0 0 0 0 0 0 0 0 0 0 0 0 0 0 0 1 1 1 0 1 2 2 2 1 0 0 0
5 5 4 4 3 3 3 2 2 3 3 3 3 3 3 2 0 0 0 0 0 0 0 0 0 0 0 0 0 0 0 0 0 0 0 0 1 1 1 1 0 0 0
4 4 4 3 3 2 1 1 1 1 2 2 2 4 4 2 1 0 0 0 0 0 0 0 0 0 0 0 0 0 0 0 0 0 0 0 0 0 0 0 0 0 0
3 3 3 2 1 1 0 0 0 0 0 0 1 2 2 2 1 2 1 1 1 0 0 0 0 0 0 0 0 0 0 0 0 0 0 0 0 0 0 0 0 0 0
1 2 2 1 0 0 0 0 0 0 0 0 0 0 1 1 2 3 3 2 1 0 0 0 0 0 0 0 0 0 0 0 0 0 0 0 0 0 0 0 0 0 0
1 1 1 0 0 0 0 0 0 0 0 0 0 0 0 1 2 2 2 2 1 0 0 0 0 0 0 0 0 0 0 0 0 0 0 0 0 0 0 0 0 0 0
2 1 1 1 0 0 0 0 0 0 0 0 0 0 0 0 1 1 1 1 0 0 0 0 0 0 0 0 0 0 0 0 0 0 0 0 0 0 0 0 0 0 0
3 3 2 2 1 1 1 0 0 0 0 0 0 0 0 0 0 0 0 0 0 0 0 0 0 0 0 0 0 0 0 0 0 0 0 0 0 0 0 0 0 0 0
3 3 3 3 3 2 2 1 0 0 0 0 0 0 0 0 0 0 0 0 0 0 0 0 0 0 0 0 0 0 0 0 0 0 0 0 0 0 0 0 0 0 0
3 3 3 3 3 3 3 2 0 0 0 0 0 0 0 0 0 0 0 0 0 0 0 0 0 0 0 0 0 0 0 0 0 0 0 0 0 0 0 0 0 0 0
3 3 3 2 3 3 2 1 0 0 0 0 0 0 0 0 0 0 0 0 0 0 0 0 0 0 0 0 0 0 0 0 0 0 0 0 0 0 0 0 0 0 0
2 2 2 2 2 2 1 0 0 0 0 0 0 0 0 0 0 0 0 0 0 0 0 0 0 0 0 0 0 0 0 0 0 0 0 0 0 0 0 0 0 0 0
1 0 1 1 1 1 0 0 0 0 0 0 0 0 0 0 0 0 0 0 0 0 0 0 0 0 0 0 0 0 0 0 0 0 0 0 0 0 0 0 0 0 0
0 0 0 0 0 0 0 0 0 0 0 0 0 0 0 0 0 0 0 0 0 0 0 0 0 0 0 0 0 0 0 0 0 0 0 0 0 0 0 0 0 0 0
1 1 0 0 0 0 0 0 0 0 0 0 0 0 0 0 0 0 0 0 0 0 0 0 0 0 0 0 0 0 0 0 0 0 0 0 0 0 0 0 0 0 0
2 2 1 0 0 0 0 0 0 0 0 0 0 0 0 0 0 0 0 0 0 0 0 0 0 0 0 0 0 0 0 0 0 0 0 0 0 0 0 0 0 0 0
Wind_Speed
4 3 3 2 3 2 3 2 2 2 2 2 3 4 4 3 3 2 2 7 7 7 7 7 7 7 7 6 6 6 6 7 7 7 7 7 7 7 7 7 7 7 6
4 4 3 3 3 3 3 3 2 2 2 2 2 3 3 4 3 3 2 3 6 7 7 7 7 7 7 6 6 6 6 6 7 7 7 7 7 7 7 7 7 6 7
5 4 3 3 3 3 3 3 2 2 2 3 2 2 3 3 4 4 3 2 3 5 7 7 7 7 7 7 7 7 6 6 7 7 7 7 8 7 7 7 7 7 7
6 5 4 3 3 3 3 3 2 2 2 2 2 1 1 2 3 3 3 3 2 2 4 7 7 7 7 7 7 7 7 6 6 6 7 7 7 7 7 7 7 7 7
6 5 4 3 4 3 3 3 2 2 2 2 2 1 1 1 2 3 3 3 3 3 2 5 7 7 7 7 7 7 7 7 7 7 7 7 7 7 7 7 7 7 7
6 5 4 4 4 4 3 2 3 2 2 2 2 1 1 1 1 2 3 2 3 4 3 3 3 4 7 7 6 6 7 7 7 7 7 7 7 7 7 7 7 7 8
5 5 4 4 4 4 4 4 3 2 1 1 2 2 2 1 1 2 2 2 2 3 3 3 3 2 3 6 7 7 7 7 7 8 7 7 7 7 7 6 6 7 7
6 5 5 4 4 4 4 3 3 2 1 2 3 2 1 3 2 2 1 2 3 2 3 4 3 4 3 2 4 8 8 8 7 8 8 8 8 8 8 7 7 6 6
6 5 6 5 4 4 4 3 4 4 2 1 2 3 3 2 2 2 1 2 2 2 2 2 4 4 4 3 3 6 8 8 9 8 9 9 8 9 8 8 8 8 7
5 6 6 5 5 4 4 3 3 3 3 2 0 0 2 3 2 1 3 2 1 2 3 3 3 4 4 3 4 6 8 8 8 9 9 9 9 10 9 9 9 8 8
4 5 5 5 4 4 4 4 3 3 2 3 2 1 0 0 1 2 2 2 2 2 2 2 3 3 4 4 4 6 8 8 8 8 8 8 9 10 10 10 9 9 9
3 4 5 4 4 4 4 4 4 4 2 3 2 2 2 2 1 2 2 2 2 2 2 2 2 3 3 4 6 8 9 9 8 8 8 8 8 8 9 10 10 9 9
3 4 4 4 4 3 4 4 3 3 3 3 3 2 2 2 2 2 2 1 1 2 2 2 2 3 3 3 4 8 8 9 9 9 9 8 8 8 9 9 10 10 10
4 5 5 4 4 4 4 3 2 2 3 3 3 3 2 2 2 2 3 2 1 2 2 3 2 2 2 2 4 6 5 9 9 9 9 9 9 9 9 9 9 9 9
3 5 5 5 4 4 4 4 3 3 3 3 3 3 2 2 2 2 2 3 3 2 3 3 2 2 2 2 4 3 4 7 9 9 9 9 9 9 9 9 9 9 9
4 5 5 5 5 4 4 3 3 3 3 3 2 3 2 2 2 1 1 2 2 3 3 3 3 2 2 2 3 3 4 6 7 8 8 9 9 9 9 9 9 9 9
4 5 5 5 5 4 4 4 3 3 3 2 2 3 3 2 1 1 1 1 1 2 3 3 2 1 1 2 2 2 2 3 3 7 8 8 8 9 9 9 9 9 9
5 5 5 5 5 4 4 4 4 4 4 4 3 3 3 2 2 2 1 2 2 2 3 3 2 1 2 3 2 3 2 3 3 6 8 8 8 8 9 9 10 10 9
3 4 4 5 4 4 4 5 5 4 4 4 4 4 4 3 3 2 2 2 2 2 2 2 2 2 2 1 1 2 2 2 3 4 6 7 8 9 9 10 10 10 10
3 3 4 4 4 4 4 4 4 4 4 4 4 4 4 4 4 4 3 3 2 1 1 2 2 2 2 1 1 1 2 2 3 3 4 4 6 8 9 10 10 10 10
3 3 3 4 4 4 4 4 4 4 4 4 3 4 4 5 5 4 3 3 3 2 2 2 2 2 2 1 2 2 2 2 3 2 2 3 3 3 4 7 9 11 11
2 2 2 3 4 4 4 5 4 4 3 4 4 3 4 4 5 5 5 5 5 4 4 3 2 3 4 3 2 2 1 1 3 2 2 3 2 3 4 4 9 11 12
2 2 3 3 3 4 6 6 6 4 4 4 4 3 3 3 3 3 4 5 5 7 7 5 5 5 4 4 3 2 3 3 4 3 2 4 3 4 5 6 10 12 12
2 3 3 3 3 4 6 7 7 4 3 4 4 4 4 4 4 4 3 3 4 4 6 5 5 6 5 4 5 4 4 3 3 2 3 3 3 4 4 4 8 12 12
1 2 2 3 4 4 6 6 5 3 3 4 4 4 4 5 6 6 3 3 4 4 5 6 6 6 6 7 5 2 2 2 3 3 2 3 3 3 3 4 5 8 10
2 2 2 2 3 4 5 6 5 3 3 3 3 4 6 6 7 6 4 4 5 5 3 2 3 4 5 5 6 5 5 3 2 3 3 3 2 1 3 3 3 3 4
Wind_Direction
165 165 165 169 168 157 156 159 169 143 132 131 140 144 145 147 148 155 156 159 161 164 162 161 159 157 158 162 163 166 170 167 167 168 171 172 171 170 172 173 175 178 176
161 160 163 165 164 164 157 153 151 142 135 131 138 147 146 147 161 168 169 165 170 172 171 169 168 169 170 170 168 169 171 173 173 176 177 177 179 178 179 179 179 182 181
153 152 158 161 167 153 135 123 118 114 130 129 138 155 149 153 166 172 173 175 177 182 180 177 175 178 179 179 179 180 181 182 181 182 183 183 185 185 187 187 187 190 186
147 143 143 162 153 137 131 129 128 118 123 132 146 166 161 159 173 178 176 174 175 185 186 185 186 185 185 187 189 189 189 190 184 183 181 183 187 187 191 194 195 193 190
147 144 147 151 140 127 129 142 129 137 139 142 156 168 184 181 190 186 181 181 182 186 188 194 194 194 194 194 194 194 194 197 197 198 196 195 193 190 193 199 198 198 199
149 144 145 143 134 127 125 124 131 121 136 152 146 136 242 219 208 200 198 188 191 196 192 197 200 209 204 201 200 199 202 205 204 202 201 202 197 193 196 200 201 205 207
154 151 148 142 140 139 147 143 130 125 123 115 87 31 350 328 237 227 211 194 203 204 188 194 200 207 215 211 212 209 208 207 205 202 203 203 196 193 192 195 198 203 208
161 162 153 152 149 142 142 141 131 131 146 131 127 107 15 344 326 254 225 206 211 207 205 204 198 202 209 206 216 213 211 208 206 204 205 204 200 198 199 202 205 208 212
159 157 155 150 150 149 158 157 147 145 153 165 146 144 151 213 288 318 268 227 216 210 225 221 210 209 209 205 215 217 212 211 211 210 208 204 204 204 207 210 213 217 219
162 161 157 154 155 152 157 166 151 143 142 162 208 190 177 166 159 303 318 304 245 216 221 222 219 211 207 205 212 208 208 210 214 215 213 209 209 209 212 215 218 221 223
162 161 158 156 158 160 162 159 146 144 149 159 169 171 173 102 138 154 253 299 314 271 236 223 216 215 214 207 211 213 207 208 216 215 215 214 216 216 216 219 221 224 228
164 159 154 157 160 162 164 162 159 162 167 161 163 162 164 166 187 169 199 240 266 282 270 248 219 217 213 208 217 211 205 204 211 214 215 217 217 220 221 222 223 225 230
170 172 160 159 162 165 165 158 159 171 177 172 178 186 186 192 183 172 166 210 252 281 291 280 241 221 218 209 222 216 211 208 210 215 217 218 219 223 226 226 226 228 231
178 169 162 164 165 164 166 158 161 189 188 191 199 193 198 216 191 177 172 166 228 299 286 268 285 238 231 218 219 212 217 215 215 219 222 221 224 228 231 233 233 230 229
172 164 165 168 172 171 169 163 172 198 192 200 209 208 211 224 215 197 179 169 171 217 259 256 258 259 243 230 220 205 209 218 219 221 224 225 228 231 232 232 234 234 232
171 166 170 172 176 178 179 174 186 200 194 210 209 212 226 230 234 214 189 185 182 184 225 243 238 247 247 244 229 215 220 223 223 224 227 228 230 232 233 232 232 234 234
171 170 174 173 180 186 185 186 201 198 200 220 223 212 227 224 223 229 207 187 191 175 213 260 260 260 240 248 260 243 235 223 224 228 231 231 232 233 233 231 230 232 234
178 177 176 177 188 193 191 193 207 207 205 215 223 217 234 226 219 227 215 216 218 199 190 236 267 264 251 242 238 240 248 236 231 238 236 235 234 233 232 233 232 231 232
173 176 175 181 191 194 197 202 205 210 212 217 216 217 226 208 221 227 222 227 230 219 189 200 245 256 259 256 255 260 254 257 252 248 241 239 238 237 234 234 232 230 231
162 173 178 186 192 198 201 203 204 212 219 225 223 219 214 206 212 215 219 228 227 216 201 207 238 258 258 268 198 243 279 267 265 261 252 250 247 246 243 239 234 232 231
173 180 185 193 194 199 207 204 208 218 220 231 236 229 223 219 215 214 217 215 204 201 205 217 238 255 260 259 244 230 244 272 275 247 252 262 254 253 251 245 241 237 234
186 179 190 192 201 216 216 212 209 213 214 219 230 241 241 228 228 233 233 222 202 197 204 208 225 231 248 241 237 232 225 249 274 249 211 263 238 251 251 239 240 238 236
187 195 205 199 211 225 217 216 215 207 209 214 217 224 242 241 230 228 239 242 238 227 210 198 212 226 227 224 209 230 227 222 239 237 196 261 251 252 253 250 244 238 237
205 209 213 210 213 233 225 223 223 215 210 216 217 216 221 235 237 224 230 243 250 247 228 215 215 228 229 218 206 214 224 237 264 255 191 239 253 253 262 257 250 242 238
213 225 226 221 220 237 228 222 210 199 212 228 229 222 219 226 237 230 222 234 254 267 258 229 225 235 238 234 219 204 217 218 267 267 210 209 247 263 272 267 258 246 240
217 223 242 239 224 230 228 225 212 199 216 238 247 242 236 230 233 228 217 216 231 247 249 257 256 259 252 246 232 213 208 210 230 259 228 198 236 241 288 277 263 250 242